Location: Buchdorf
(48.7842°N, 10.8275°E)
Time: 12:50:16
(UTC+00:00)

Envisat - Visible Passes

Search period start: 08 March 2021 00:00
Search period end: 18 March 2021 00:00
Orbit: 764 x 766 km, 98.1° (Epoch: 07 March)

Date Brightness Start Highest point End Pass type
(mag) Time Alt. Az. Time Alt. Az. Time Alt. Az.
08 Mar 6.0 03:36:02 10° NE 03:38:45 14° E 03:41:27 10° ESE visible
09 Mar 4.2 04:36:38 10° NNE 04:41:34 47° E 04:46:27 10° S visible
09 Mar 6.5 17:37:16 10° WSW 17:39:45 14° W 17:42:15 10° WNW visible
10 Mar 5.5 04:00:23 10° NE 04:04:28 24° E 04:08:30 10° SE visible
11 Mar 6.2 03:25:34 10° ENE 03:27:09 11° E 03:28:43 10° ESE visible
11 Mar 3.2 05:01:54 10° NNE 05:07:01 78° ESE 05:12:06 10° S visible
12 Mar 4.6 04:25:19 10° NNE 04:30:04 38° E 04:34:47 10° SSE visible
13 Mar 5.8 03:49:18 10° NE 03:52:54 19° E 03:56:30 10° SE visible
14 Mar 3.6 04:50:30 10° NNE 04:55:34 63° E 05:00:37 10° S visible
15 Mar 5.0 04:14:03 10° NNE 04:18:33 31° E 04:23:03 10° SSE visible
16 Mar 6.0 03:38:21 10° NE 03:41:20 15° E 03:44:19 10° ESE visible
17 Mar 4.1 04:39:08 10° NNE 04:44:06 51° E 04:49:02 10° S visible
